Location: Agadir Mansour Mhndou
(31.2424°N, 8.7730°W)
Time: 06:12:07
(UTC+00:00)

Cosmos 1934 Rocket - Pass Details

Date: 16 October 2021
Orbit: 938 x 999 km, 83.0° (Epoch: 28 November)

Event Time Altitude Azimuth Distance (km) Brightness Sun altitude
Rises 19:29:23 0° 186° (S) 3,648 7.1 -19.4°
Reaches altitude 10° 19:31:54 10° 186° (S) 2,695 6.4 -20.0°
Maximum altitude 19:38:04 84° 274° (W) 964 3.9 -21.3°
Drops below altitude 10° 19:44:11 10° 4° (N) 2,671 6.3 -22.6°
Sets 19:46:40 0° 5° (N) 3,613 7.0 -23.1°
